sat.trackr.live / text

‹ back to catalog

STARLINK-31257

NORAD 59079 · 2024-041F

PAYLOAD ACTIVE UNKNOWN

§ Identity

Operator
Country
US
Launch date
2024-02-29
Launch site
AFETR
Launch vehicle
Mass (kg)
RCS (m²)

Purposes: comms

External: N2YO · Heavens-Above · Gunter

§ Orbital elements

Epoch: 2026-05-24T17:41:21.443136Z

Period
94.27 min
Inclination
43.0007°
Eccentricity
0.0001297
Mean motion
15.27589876 rev/d
Perigee alt
482.1 km
Apogee alt
483.9 km
Semi-major
6,861.2 km
B*
8.9887e-5
RAAN
241.0863°
Arg perigee
262.0256°
Mean anomaly
98.0449°
Rev number
12,590

§ Raw data

STARLINK-312571 59079U 24041F   26144.73705374  .00002213  00000+0  89887-4 0  99952 59079  43.0007 241.0863 0001297 262.0256  98.0449 15.27589876125901

JSON: /api/v1/satellites/59079 · /tle

For live sub-satellite position, see the globe view (requires WebGL).

§ Visibility from observer

Set your observer location to see the next 7 days of passes ≥ 10°. The values pass through the URL so the page stays shareable.

No JS? Fill the form by hand. The geolocation button needs JavaScript.